Location: Newark
(37.3333°N, 6.0167°W)
Time: 09:03:02
(UTC+00:00)

LightSail 2 - Visible Passes

Search period start: 14 November 2019 00:00
Search period end: 24 November 2019 00:00
Orbit: 701 x 726 km, 24.0° (Epoch: 13 November)

Date Brightness Start Highest point End Pass type
(mag) Time Alt. Az. Time Alt. Az. Time Alt. Az.
14 Nov 7.6 04:08:03 14° SSE 04:08:03 14° SSE 04:09:21 10° SE visible
14 Nov 7.2 05:47:30 10° SW 05:50:51 17° S 05:54:13 10° SE visible
15 Nov 7.0 04:52:47 18° S 04:53:09 18° S 04:56:38 10° SE visible
15 Nov 7.5 06:35:43 10° SW 06:37:56 13° SSW 06:40:09 10° SSE visible
16 Nov 7.9 03:58:30 11° SE 03:58:30 11° SE 03:58:55 10° SE visible
16 Nov 7.3 05:37:29 10° SW 05:40:14 15° S 05:43:04 10° SSE visible
17 Nov 7.3 04:43:12 16° S 04:43:12 16° S 04:45:43 10° SSE visible
18 Nov 7.4 05:28:04 10° SSW 05:29:33 11° SSW 05:31:03 10° S visible
19 Nov 7.6 04:33:35 12° S 04:33:35 12° S 04:34:17 10° SSE visible
